sat.trackr.live / text

‹ back to catalog

TRANSPORTER-10 OBJECT AD

NORAD 59125 · 2024-043AD

PAYLOAD ACTIVE UNKNOWN

§ Identity

Operator
Country
TBD
Launch date
2024-03-04
Launch site
AFWTR
Launch vehicle
Mass (kg)
RCS (m²)

External: N2YO · Heavens-Above · Gunter

§ Orbital elements

Epoch: 2026-09-21T21:25:03.297792Z

Period
93.67 min
Inclination
97.5770°
Eccentricity
0.0007598
Mean motion
15.37331873 rev/d
Perigee alt
448.8 km
Apogee alt
459.2 km
Semi-major
6,832.1 km
B*
1.6702e-4
RAAN
48.6981°
Arg perigee
243.3852°
Mean anomaly
116.6614°
Rev number
14,211

§ Raw data

TRANSPORTER-10 OBJECT AD1 59125U 24043AD  26264.89239928  .00006028  00000+0  16702-3 0  99992 59125  97.5770  48.6981 0007598 243.3852 116.6614 15.37331873142116

JSON: /api/v1/satellites/59125 · /tle

For live sub-satellite position, see the globe view (requires WebGL).

§ Visibility from observer

Set your observer location to see the next 7 days of passes ≥ 10°. The values pass through the URL so the page stays shareable.

No JS? Fill the form by hand. The geolocation button needs JavaScript.